This is the latest recevied weather packets stored in our database for station/object KD7MPG-3. If no packets are shown the sender has not sent any weather packets the latest 10 day(s).
| Time | Temp. | Humidity | Pressure | Rain* | Wind** | Luminosity | Snow |
|---|---|---|---|---|---|---|---|
| 1777776156 | 18.33° C | 78% | 1019.9 hPa | 0 mm | - | - | - |
| 1777775855 | 18.33° C | 78% | 1019.7 hPa | 0 mm | - | - | - |
| 1777775555 | 18.33° C | 78% | 1019.6 hPa | 0 mm | - | - | - |
| 1777775255 | 18.33° C | 78% | 1019.7 hPa | 0 mm | - | - | - |
| 1777774955 | 18.33° C | 78% | 1019.9 hPa | 0 mm | - | - | - |
| 1777774656 | 18.33° C | 77% | 1019.9 hPa | 0 mm | - | - | - |
| 1777774350 | 18.89° C | 77% | 1020.1 hPa | 0 mm | - | - | - |
| 1777774050 | 18.89° C | 77% | 1020.4 hPa | 0 mm | - | - | - |
| 1777773749 | 18.89° C | 76% | 1020.3 hPa | 0 mm | - | - | - |
| 1777773449 | 18.89° C | 76% | 1020.6 hPa | 0 mm | - | - | - |
| 1777773149 | 18.89° C | 76% | 1020.9 hPa | 0 mm | - | - | - |
| 1777772850 | 19.44° C | 76% | 1021.1 hPa | 0 mm | - | - | - |
| 1777772245 | 19.44° C | 74% | 1021.1 hPa | 0 mm | - | - | - |
| 1777771343 | 20.56° C | 72% | 1021.4 hPa | 0 mm | - | - | - |
| 1777771044 | 20.56° C | 71% | 1021.1 hPa | 0 mm | - | - | - |
| 1777770737 | 20.56° C | 71% | 1020.8 hPa | 0 mm | - | - | - |
| 1777770137 | 21.11° C | 70% | 1020.8 hPa | 0 mm | - | - | - |
| 1777769537 | 21.11° C | 69% | 1020.7 hPa | 0 mm | - | - | - |
| 1777768033 | 20.56° C | 69% | 1020.7 hPa | 0 mm | - | - | - |
| 1777767731 | 20.56° C | 69% | 1020.5 hPa | 0 mm | - | - | - |
| 1777767432 | 20.56° C | 70% | 1020.6 hPa | 0 mm | - | - | - |
| 1777767128 | 20.56° C | 69% | 1020.5 hPa | 0 mm | - | - | - |
| 1777766528 | 20.56° C | 68% | 1020.4 hPa | 0 mm | - | - | - |
| 1777765319 | 20° C | 70% | 1020.5 hPa | 0 mm | - | - | - |
| 1777765019 | 20° C | 71% | 1020.7 hPa | 0 mm | - | - | - |
* Rain latest hour (hover to see other rain measurements)
** Current wind speed in m/s (hover to see current wind gust speed)